When you browse on this site, cookies collect data to enhance your experience and personalize the content and advertising you see.
Visit our Privacy Policy to learn more. By continuing to use the site, you agree to this use of cookies and data.
  • In Romania
  • List of Countries
  • For 7 days
  • Water Temperature
  • Satellite Maps
  • Weather Map
  • Weather Widgets
  • user-avatar
    Login

    Hourly Weather Zadonschino

    Today, 17 November, Saturday

    Time Temperature Precipitation Wind Pressure Humidity
    00:00 -1°C° 0 mm 1 mps 768 mmHg 23%
    01:00 -1°C° 0 mm 1 mps 768 mmHg 23%
    02:00 -1°C° 0 mm 1 mps 767 mmHg 22%
    03:00 -2°C° 0 mm 1 mps 767 mmHg 22%
    04:00 -2°C° 0 mm 1 mps 767 mmHg 22%
    05:00 -2°C° 0 mm 1 mps 766 mmHg 22%
    06:00 -2°C° 0 mm 1 mps 766 mmHg 23%
    07:00 -2°C° 0 mm 1 mps 766 mmHg 23%
    08:00 -2°C° 0 mm 1 mps 765 mmHg 24%
    09:00 -3°C° 0 mm 2 mps 766 mmHg 23%
    10:00 -2°C° 0 mm 2 mps 765 mmHg 23%
    11:00 -1°C° 0 mm 2 mps 765 mmHg 22%
    12:00 0°C° 0 mm 3 mps 764 mmHg 21%
    13:00 0°C° 0 mm 3 mps 764 mmHg 23%
    14:00 0°C° 0 mm 3 mps 763 mmHg 24%
    15:00 0°C° 0 mm 3 mps 762 mmHg 25%
    16:00 -2°C° 0 mm 4 mps 761 mmHg 27%
    17:00 -2°C° 0 mm 4 mps 761 mmHg 29%
    18:00 -3°C° 0 mm 4 mps 760 mmHg 31%
    19:00 -3°C° 0 mm 4 mps 759 mmHg 32%
    20:00 -3°C° 0 mm 4 mps 759 mmHg 33%
    21:00 -3°C° 0 mm 4 mps 758 mmHg 35%
    22:00 -2°C° 0 mm 5 mps 758 mmHg 36%
    23:00 -2°C° 0 mm 5 mps 757 mmHg 38%

    Tomorrow, 18 November, Sunday

    Time Temperature Precipitation Wind Pressure Humidity
    00:00 -2°C° 0 mm 5 mps 756 mmHg 39%
    01:00 -2°C° 0 mm 5 mps 756 mmHg 43%
    02:00 -2°C° 0 mm 5 mps 755 mmHg 47%
    03:00 -4°C° 0 mm 5 mps 755 mmHg 50%
    04:00 -4°C° 0 mm 5 mps 754 mmHg 51%
    05:00 -4°C° 0 mm 5 mps 753 mmHg 52%
    06:00 -3°C° 0 mm 4 mps 753 mmHg 54%
    07:00 -3°C° 0 mm 4 mps 752 mmHg 57%
    08:00 -3°C° 0 mm 4 mps 752 mmHg 60%
    09:00 -3°C° 0 mm 4 mps 752 mmHg 64%
    10:00 -2°C° 0 mm 4 mps 752 mmHg 67%
    11:00 -1°C° 0 mm 3 mps 752 mmHg 71%
    12:00 -1°C° 0 mm 3 mps 752 mmHg 74%
    13:00 -1°C° 0 mm 3 mps 752 mmHg 76%
    14:00 -1°C° 0 mm 3 mps 752 mmHg 77%
    15:00 -1°C° 0 mm 3 mps 752 mmHg 79%
    16:00 -1°C° 0 mm 2 mps 752 mmHg 81%
    17:00 -1°C° 0 mm 2 mps 752 mmHg 84%
    18:00 -2°C° 0 mm 2 mps 752 mmHg 86%
    19:00 -2°C° 0 mm 2 mps 753 mmHg 87%
    20:00 -2°C° 0 mm 2 mps 753 mmHg 88%
    21:00 0°C° 0 mm 1 mps 753 mmHg 89%
    22:00 0°C° 0 mm 1 mps 753 mmHg 89%
    23:00 0°C° 0 mm 1 mps 753 mmHg 90%

    Day after tomorrow, 19 November, Monday

    Time Temperature Precipitation Wind Pressure Humidity
    00:00 +1°C° 0 mm 1 mps 754 mmHg 90%
    01:00 +1°C° 0 mm 1 mps 754 mmHg 91%
    02:00 +1°C° 0 mm 1 mps 754 mmHg 91%
    03:00 +1°C° 0 mm 1 mps 754 mmHg 91%
    04:00 0°C° 0 mm 0 mps 755 mmHg 92%
    05:00 0°C° 0 mm 0 mps 755 mmHg 92%
    06:00 -1°C° 0 mm 0 mps 755 mmHg 93%
    07:00 0°C° 0 mm 1 mps 755 mmHg 93%
    08:00 0°C° 0 mm 1 mps 756 mmHg 93%
    09:00 0°C° 0 mm 1 mps 756 mmHg 94%
    10:00 +1°C° 0 mm 1 mps 757 mmHg 91%
    11:00 +2°C° 0 mm 1 mps 757 mmHg 88%
    12:00 +2°C° 0 mm 1 mps 757 mmHg 85%
    13:00 +2°C° 0 mm 1 mps 758 mmHg 86%
    14:00 +2°C° 0 mm 1 mps 758 mmHg 87%
    15:00 +2°C° 0 mm 1 mps 758 mmHg 88%
    16:00 -1°C° 0 mm 2 mps 758 mmHg 91%
    17:00 -1°C° 0 mm 2 mps 758 mmHg 93%
    18:00 -2°C° 0 mm 2 mps 758 mmHg 95%
    19:00 -2°C° 0 mm 2 mps 758 mmHg 95%
    20:00 -2°C° 0 mm 2 mps 758 mmHg 95%
    21:00 -2°C° 0 mm 2 mps 758 mmHg 96%
    22:00 -2°C° 0 mm 2 mps 758 mmHg 95%
    23:00 -2°C° 0 mm 2 mps 759 mmHg 95%

    20 November, Tuesday

    Time Temperature Precipitation Wind Pressure Humidity
    00:00 -2°C° 0 mm 2 mps 759 mmHg 95%
    01:00 -2°C° 0 mm 2 mps 759 mmHg 95%
    02:00 -2°C° 0 mm 2 mps 759 mmHg 95%
    03:00 -2°C° 0 mm 2 mps 759 mmHg 95%
    04:00 -2°C° 0 mm 2 mps 758 mmHg 95%
    05:00 -2°C° 0 mm 2 mps 758 mmHg 95%
    06:00 -2°C° 0 mm 3 mps 758 mmHg 96%
    07:00 -2°C° 0 mm 3 mps 758 mmHg 95%
    08:00 -2°C° 0 mm 3 mps 758 mmHg 94%
    09:00 -1°C° 0 mm 3 mps 758 mmHg 94%
    10:00 -1°C° 0 mm 3 mps 758 mmHg 91%
    11:00 -1°C° 0 mm 3 mps 758 mmHg 88%
    12:00 -1°C° 0 mm 3 mps 757 mmHg 85%
    13:00 -1°C° 0 mm 3 mps 757 mmHg 84%
    14:00 -1°C° 0 mm 2 mps 757 mmHg 83%
    15:00 -1°C° 0 mm 2 mps 757 mmHg 82%
    16:00 -1°C° 0 mm 2 mps 756 mmHg 83%
    17:00 -1°C° 0 mm 2 mps 756 mmHg 84%
    18:00 -1°C° 0 mm 2 mps 756 mmHg 85%
    19:00 +1°C° 0 mm 1 mps 756 mmHg 85%
    20:00 0°C° 0 mm 1 mps 756 mmHg 85%
    21:00 0°C° 0 mm 1 mps 756 mmHg 85%
    22:00 0°C° 0 mm 1 mps 756 mmHg 85%
    23:00 0°C° 0 mm 1 mps 756 mmHg 84%

    21 November, Wednesday

    Time Temperature Precipitation Wind Pressure Humidity
    00:00 0°C° 0 mm 1 mps 755 mmHg 84%
    01:00 0°C° 0 mm 1 mps 755 mmHg 84%
    02:00 0°C° 0 mm 1 mps 755 mmHg 84%
    03:00 0°C° 0 mm 1 mps 755 mmHg 83%
    04:00 -2°C° 0 mm 2 mps 755 mmHg 84%
    05:00 -2°C° 0 mm 2 mps 754 mmHg 84%
    06:00 -2°C° 0 mm 2 mps 754 mmHg 84%
    07:00 -2°C° 0 mm 2 mps 754 mmHg 83%
    08:00 -2°C° 0 mm 3 mps 754 mmHg 82%
    09:00 -2°C° 0 mm 3 mps 754 mmHg 81%
    10:00 -1°C° 0 mm 3 mps 754 mmHg 78%
    11:00 -1°C° 0 mm 3 mps 754 mmHg 76%
    12:00 -2°C° 0 mm 4 mps 754 mmHg 73%
    13:00 -2°C° 0 mm 4 mps 753 mmHg 73%
    14:00 -2°C° 0 mm 4 mps 753 mmHg 73%
    15:00 -2°C° 0 mm 4 mps 753 mmHg 73%
    16:00 -3°C° 0 mm 4 mps 753 mmHg 75%
    17:00 -3°C° 0 mm 4 mps 753 mmHg 77%
    18:00 -4°C° 0 mm 4 mps 753 mmHg 79%
    19:00 -4°C° 0 mm 4 mps 753 mmHg 79%
    20:00 -3°C° 0 mm 4 mps 753 mmHg 79%
    21:00 -2°C° 0 mm 3 mps 753 mmHg 80%
    22:00 -2°C° 0 mm 3 mps 753 mmHg 81%
    23:00 -2°C° 0 mm 3 mps 753 mmHg 83%

    22 November, Thursday

    Time Temperature Precipitation Wind Pressure Humidity
    00:00 -2°C° 0 mm 3 mps 753 mmHg 85%
    01:00 -2°C° 0 mm 3 mps 753 mmHg 85%
    02:00 -2°C° 0 mm 3 mps 753 mmHg 85%
    03:00 -3°C° 0 mm 4 mps 753 mmHg 86%
    04:00 -4°C° 0 mm 3 mps 752 mmHg 85%
    05:00 -4°C° 0 mm 3 mps 752 mmHg 84%
    06:00 -4°C° 0 mm 3 mps 752 mmHg 83%
    07:00 -4°C° 0 mm 3 mps 752 mmHg 82%
    08:00 -4°C° 0 mm 4 mps 752 mmHg 81%
    09:00 -4°C° 0 mm 4 mps 752 mmHg 80%
    10:00 -3°C° 0 mm 4 mps 752 mmHg 76%
    11:00 -4°C° 0 mm 5 mps 752 mmHg 73%
    12:00 -4°C° 0 mm 5 mps 752 mmHg 69%
    13:00 -4°C° 0 mm 5 mps 752 mmHg 70%
    14:00 -4°C° 0 mm 5 mps 751 mmHg 71%
    15:00 -4°C° 0 mm 5 mps 751 mmHg 71%
    16:00 -4°C° 0 mm 6 mps 751 mmHg 74%
    17:00 -4°C° 0 mm 6 mps 751 mmHg 76%
    18:00 -5°C° 0 mm 6 mps 751 mmHg 79%
    19:00 -4°C° 0 mm 6 mps 751 mmHg 79%
    20:00 -4°C° 0 mm 5 mps 751 mmHg 79%
    21:00 -4°C° 0 mm 5 mps 752 mmHg 79%
    22:00 -4°C° 0 mm 5 mps 752 mmHg 80%
    23:00 -4°C° 0 mm 5 mps 752 mmHg 82%
    Show more